Year,Month,Day,Hour,Minute,Value (Times are PST for temperature in C)
2013,08,05,00,00,15.10
2013,08,05,00,01,15.10
2013,08,05,00,02,15.10
2013,08,05,00,03,15.10
2013,08,05,00,04,15.10
2013,08,05,00,05,15.20
2013,08,05,00,06,15.20
2013,08,05,00,07,15.20
2013,08,05,00,08,15.20
2013,08,05,00,09,15.20
2013,08,05,00,10,15.30
2013,08,05,00,11,15.30
2013,08,05,00,12,15.30
2013,08,05,00,13,15.40
2013,08,05,00,14,15.40
2013,08,05,00,15,15.50
2013,08,05,00,16,15.50
2013,08,05,00,17,15.60
2013,08,05,00,18,15.60
2013,08,05,00,19,15.60
2013,08,05,00,20,15.60
2013,08,05,00,21,15.60
2013,08,05,00,22,15.60
2013,08,05,00,23,15.60
2013,08,05,00,24,15.60
2013,08,05,00,25,15.60
2013,08,05,00,26,15.50
2013,08,05,00,27,15.50
2013,08,05,00,28,15.40
2013,08,05,00,29,15.40
2013,08,05,00,30,15.30
2013,08,05,00,31,15.30
2013,08,05,00,32,15.30
2013,08,05,00,33,15.30
2013,08,05,00,34,15.20
2013,08,05,00,35,15.20
2013,08,05,00,36,15.10
2013,08,05,00,37,15.10
2013,08,05,00,38,15.00
2013,08,05,00,39,15.00
2013,08,05,00,40,15.00
2013,08,05,00,41,14.90
2013,08,05,00,42,14.90
2013,08,05,00,43,14.90
2013,08,05,00,44,14.90
2013,08,05,00,45,14.90
2013,08,05,00,46,14.80
2013,08,05,00,47,14.80
2013,08,05,00,48,14.80
2013,08,05,00,49,14.80
2013,08,05,00,50,14.80
2013,08,05,00,51,14.80
2013,08,05,00,52,14.80
2013,08,05,00,53,14.80
2013,08,05,00,54,14.80
2013,08,05,00,55,14.80
2013,08,05,00,56,14.70
2013,08,05,00,57,14.70
2013,08,05,00,58,14.70
2013,08,05,00,59,14.70
2013,08,05,01,00,14.70
2013,08,05,01,01,14.70
2013,08,05,01,02,14.60
2013,08,05,01,03,14.60
2013,08,05,01,04,14.60
2013,08,05,01,05,14.60
2013,08,05,01,06,14.60
2013,08,05,01,07,14.60
2013,08,05,01,08,14.60
2013,08,05,01,09,14.50
2013,08,05,01,10,14.50
2013,08,05,01,11,14.60
2013,08,05,01,12,14.60
2013,08,05,01,13,14.60
2013,08,05,01,14,14.60
2013,08,05,01,15,14.60
2013,08,05,01,16,14.60
2013,08,05,01,17,14.60
2013,08,05,01,18,14.60
2013,08,05,01,19,14.60
2013,08,05,01,20,14.60
2013,08,05,01,21,14.60
2013,08,05,01,22,14.60
2013,08,05,01,23,14.60
2013,08,05,01,24,14.60
2013,08,05,01,25,14.60
2013,08,05,01,26,14.60
2013,08,05,01,27,14.60
2013,08,05,01,28,14.70
2013,08,05,01,29,14.70
2013,08,05,01,30,14.70
2013,08,05,01,31,14.70
2013,08,05,01,32,14.70
2013,08,05,01,33,14.70
2013,08,05,01,34,14.70
2013,08,05,01,35,14.70
2013,08,05,01,36,14.70
2013,08,05,01,37,14.70
2013,08,05,01,38,14.70
2013,08,05,01,39,14.70
2013,08,05,01,40,14.70
2013,08,05,01,41,14.70
2013,08,05,01,42,14.70
2013,08,05,01,43,14.70
2013,08,05,01,44,14.70
2013,08,05,01,45,14.70
2013,08,05,01,46,14.70
2013,08,05,01,47,14.70
2013,08,05,01,48,14.70
2013,08,05,01,49,14.70
2013,08,05,01,50,14.70
2013,08,05,01,51,14.60
2013,08,05,01,52,14.60
2013,08,05,01,53,14.60
2013,08,05,01,54,14.60
2013,08,05,01,55,14.60
2013,08,05,01,56,14.60
2013,08,05,01,57,14.60
2013,08,05,01,58,14.60
2013,08,05,01,59,14.60
2013,08,05,02,00,14.60
2013,08,05,02,01,14.60
2013,08,05,02,02,14.60
2013,08,05,02,03,14.60
2013,08,05,02,04,14.60
2013,08,05,02,05,14.60
2013,08,05,02,06,14.60
2013,08,05,02,07,14.60
2013,08,05,02,08,14.60
2013,08,05,02,09,14.60
2013,08,05,02,10,14.60
2013,08,05,02,11,14.60
2013,08,05,02,12,14.60
2013,08,05,02,13,14.60
2013,08,05,02,14,14.60
2013,08,05,02,15,14.60
2013,08,05,02,16,14.60
2013,08,05,02,17,14.60
2013,08,05,02,18,14.50
2013,08,05,02,19,14.50
2013,08,05,02,20,14.50
2013,08,05,02,21,14.40
2013,08,05,02,22,14.40
2013,08,05,02,23,14.40
2013,08,05,02,24,14.30
2013,08,05,02,25,14.30
2013,08,05,02,26,14.30
2013,08,05,02,27,14.20
2013,08,05,02,28,14.20
2013,08,05,02,29,14.20
2013,08,05,02,30,14.20
2013,08,05,02,31,14.10
2013,08,05,02,32,14.10
2013,08,05,02,33,14.10
2013,08,05,02,34,14.10
2013,08,05,02,35,14.00
2013,08,05,02,36,14.00
2013,08,05,02,37,14.00
2013,08,05,02,38,14.00
2013,08,05,02,39,14.00
2013,08,05,02,40,13.90
2013,08,05,02,41,13.90
2013,08,05,02,42,13.90
2013,08,05,02,43,13.80
2013,08,05,02,44,13.80
2013,08,05,02,45,13.70
2013,08,05,02,46,13.70
2013,08,05,02,47,13.70
2013,08,05,02,48,13.70
2013,08,05,02,49,13.60
2013,08,05,02,50,13.60
2013,08,05,02,51,13.60
2013,08,05,02,52,13.50
2013,08,05,02,53,13.50
2013,08,05,02,54,13.40
2013,08,05,02,55,13.30
2013,08,05,02,56,13.30
2013,08,05,02,57,13.30
2013,08,05,02,58,13.30
2013,08,05,02,59,13.30
2013,08,05,03,00,13.30
2013,08,05,03,01,13.30
2013,08,05,03,02,13.30
2013,08,05,03,03,13.30
2013,08,05,03,04,13.30
2013,08,05,03,05,13.30
2013,08,05,03,06,13.20
2013,08,05,03,07,13.20
2013,08,05,03,08,13.20
2013,08,05,03,09,13.20
2013,08,05,03,10,13.20
2013,08,05,03,11,13.20
2013,08,05,03,12,13.10
2013,08,05,03,13,13.10
2013,08,05,03,14,13.10
2013,08,05,03,15,13.10
2013,08,05,03,16,13.10
2013,08,05,03,17,13.10
2013,08,05,03,18,13.10
2013,08,05,03,19,13.10
2013,08,05,03,20,13.10
2013,08,05,03,21,13.10
2013,08,05,03,22,13.10
2013,08,05,03,23,13.10
2013,08,05,03,24,13.10
2013,08,05,03,25,13.10
2013,08,05,03,26,13.10
2013,08,05,03,27,13.10
2013,08,05,03,28,13.10
2013,08,05,03,29,13.10
2013,08,05,03,30,13.10
2013,08,05,03,31,13.10
2013,08,05,03,32,13.10
2013,08,05,03,33,13.10
2013,08,05,03,34,13.10
2013,08,05,03,35,13.10
2013,08,05,03,36,13.10
2013,08,05,03,37,13.10
2013,08,05,03,38,13.10
2013,08,05,03,39,13.10
2013,08,05,03,40,13.10
2013,08,05,03,41,13.10
2013,08,05,03,42,13.20
2013,08,05,03,43,13.20
2013,08,05,03,44,13.20
2013,08,05,03,45,13.20
2013,08,05,03,46,13.20
2013,08,05,03,47,13.20
2013,08,05,03,48,13.20
2013,08,05,03,49,13.20
2013,08,05,03,50,13.20
2013,08,05,03,51,13.10
2013,08,05,03,52,13.10
2013,08,05,03,53,13.10
2013,08,05,03,54,13.10
2013,08,05,03,55,13.10
2013,08,05,03,56,13.10
2013,08,05,03,57,13.10
2013,08,05,03,58,13.00
2013,08,05,03,59,13.00
2013,08,05,04,00,13.00
2013,08,05,04,01,13.00
2013,08,05,04,02,13.00
2013,08,05,04,03,13.00
2013,08,05,04,04,13.00
2013,08,05,04,05,12.90
2013,08,05,04,06,12.90
2013,08,05,04,07,12.90
2013,08,05,04,08,12.90
2013,08,05,04,09,12.90
2013,08,05,04,10,12.90
2013,08,05,04,11,12.90
2013,08,05,04,12,12.80
2013,08,05,04,13,12.80
2013,08,05,04,14,12.90
2013,08,05,04,15,12.90
2013,08,05,04,16,12.90
2013,08,05,04,17,12.90
2013,08,05,04,18,12.80
2013,08,05,04,19,12.80
2013,08,05,04,20,12.80
2013,08,05,04,21,12.80
2013,08,05,04,22,12.80
2013,08,05,04,23,12.80
2013,08,05,04,24,12.80
2013,08,05,04,25,12.80
2013,08,05,04,26,12.80
2013,08,05,04,27,12.80
2013,08,05,04,28,12.80
2013,08,05,04,29,12.80
2013,08,05,04,30,12.80
2013,08,05,04,31,12.80
2013,08,05,04,32,12.80
2013,08,05,04,33,12.80
2013,08,05,04,34,12.80
2013,08,05,04,35,12.80
2013,08,05,04,36,12.80
2013,08,05,04,37,12.80
2013,08,05,04,38,12.80
2013,08,05,04,39,12.80
2013,08,05,04,40,12.80
2013,08,05,04,41,12.80
2013,08,05,04,42,12.80
2013,08,05,04,43,12.80
2013,08,05,04,44,12.80
2013,08,05,04,45,12.80
2013,08,05,04,46,12.80
2013,08,05,04,47,12.80
2013,08,05,04,48,12.80
2013,08,05,04,49,12.80
2013,08,05,04,50,12.80
2013,08,05,04,51,12.80
2013,08,05,04,52,12.80
2013,08,05,04,53,12.80
2013,08,05,04,54,12.80
2013,08,05,04,55,12.70
2013,08,05,04,56,12.70
2013,08,05,04,57,12.70
2013,08,05,04,58,12.70
2013,08,05,04,59,12.70
2013,08,05,05,00,12.60
2013,08,05,05,01,12.60
2013,08,05,05,02,12.60
2013,08,05,05,03,12.60
2013,08,05,05,04,12.60
2013,08,05,05,05,12.60
2013,08,05,05,06,12.60
2013,08,05,05,07,12.60
2013,08,05,05,08,12.60
2013,08,05,05,09,12.60
2013,08,05,05,10,12.60
2013,08,05,05,11,12.60
2013,08,05,05,12,12.60
2013,08,05,05,13,12.60
2013,08,05,05,14,12.60
2013,08,05,05,15,12.60
2013,08,05,05,16,12.60
2013,08,05,05,17,12.60
2013,08,05,05,18,12.60
2013,08,05,05,19,12.60
2013,08,05,05,20,12.60
2013,08,05,05,21,12.60
2013,08,05,05,22,12.60
2013,08,05,05,23,12.60
2013,08,05,05,24,12.60
2013,08,05,05,25,12.60
2013,08,05,05,26,12.60
2013,08,05,05,27,12.60
2013,08,05,05,28,12.60
2013,08,05,05,29,12.60
2013,08,05,05,30,12.60
2013,08,05,05,31,12.60
2013,08,05,05,32,12.50
2013,08,05,05,33,12.50
2013,08,05,05,34,12.50
2013,08,05,05,35,12.50
2013,08,05,05,36,12.50
2013,08,05,05,37,12.50
2013,08,05,05,38,12.50
2013,08,05,05,39,12.50
2013,08,05,05,40,12.50
2013,08,05,05,41,12.50
2013,08,05,05,42,12.50
2013,08,05,05,43,12.50
2013,08,05,05,44,12.50
2013,08,05,05,45,12.50
2013,08,05,05,46,12.50
2013,08,05,05,47,12.50
2013,08,05,05,48,12.50
2013,08,05,05,49,12.50
2013,08,05,05,50,12.50
2013,08,05,05,51,12.50
2013,08,05,05,52,12.50
2013,08,05,05,53,12.50
2013,08,05,05,54,12.50
2013,08,05,05,55,12.60
2013,08,05,05,56,12.50
2013,08,05,05,57,12.50
2013,08,05,05,58,12.50
2013,08,05,05,59,12.50
2013,08,05,06,00,12.50
2013,08,05,06,01,12.50
2013,08,05,06,02,12.50
2013,08,05,06,03,12.50
2013,08,05,06,04,12.50
2013,08,05,06,05,12.50
2013,08,05,06,06,12.40
2013,08,05,06,07,12.40
2013,08,05,06,08,12.50
2013,08,05,06,09,12.50
2013,08,05,06,10,12.50
2013,08,05,06,11,12.50
2013,08,05,06,12,12.50
2013,08,05,06,13,12.60
2013,08,05,06,14,12.60
2013,08,05,06,15,12.70
2013,08,05,06,16,12.70
2013,08,05,06,17,12.70
2013,08,05,06,18,12.70
2013,08,05,06,19,12.70
2013,08,05,06,20,12.80
2013,08,05,06,21,12.80
2013,08,05,06,22,12.80
2013,08,05,06,23,12.80
2013,08,05,06,24,12.80
2013,08,05,06,25,12.70
2013,08,05,06,26,12.70
2013,08,05,06,27,12.70
2013,08,05,06,28,12.60
2013,08,05,06,29,12.60
2013,08,05,06,30,12.60
2013,08,05,06,31,12.60
2013,08,05,06,32,12.60
2013,08,05,06,33,12.60
2013,08,05,06,34,12.60
2013,08,05,06,35,12.60
2013,08,05,06,36,12.60
2013,08,05,06,37,12.60
2013,08,05,06,38,12.70
2013,08,05,06,39,12.70
2013,08,05,06,40,12.70
2013,08,05,06,41,12.80
2013,08,05,06,42,12.80
2013,08,05,06,43,12.80
2013,08,05,06,44,12.80
2013,08,05,06,45,12.80
2013,08,05,06,46,12.90
2013,08,05,06,47,12.90
2013,08,05,06,48,13.00
2013,08,05,06,49,13.00
2013,08,05,06,50,13.00
2013,08,05,06,51,13.10
2013,08,05,06,52,13.20
2013,08,05,06,53,13.20
2013,08,05,06,54,13.30
2013,08,05,06,55,13.30
2013,08,05,06,56,13.30
2013,08,05,06,57,13.40
2013,08,05,06,58,13.40
2013,08,05,06,59,13.50
2013,08,05,07,00,13.60
2013,08,05,07,01,13.70
2013,08,05,07,02,13.70
2013,08,05,07,03,13.80
2013,08,05,07,04,13.90
2013,08,05,07,05,14.00
2013,08,05,07,06,14.10
2013,08,05,07,07,14.20
2013,08,05,07,08,14.20
2013,08,05,07,09,14.20
2013,08,05,07,10,14.30
2013,08,05,07,11,14.40
2013,08,05,07,12,14.40
2013,08,05,07,13,14.50
2013,08,05,07,14,14.50
2013,08,05,07,15,14.60
2013,08,05,07,16,14.60
2013,08,05,07,17,14.70
2013,08,05,07,18,14.80
2013,08,05,07,19,14.90
2013,08,05,07,20,15.00
2013,08,05,07,21,15.00
2013,08,05,07,22,15.00
2013,08,05,07,23,15.10
2013,08,05,07,24,15.10
2013,08,05,07,25,15.20
2013,08,05,07,26,15.30
2013,08,05,07,27,15.30
2013,08,05,07,28,15.30
2013,08,05,07,29,15.50
2013,08,05,07,30,15.50
2013,08,05,07,31,15.60
2013,08,05,07,32,15.70
2013,08,05,07,33,15.70
2013,08,05,07,34,15.70
2013,08,05,07,35,15.80
2013,08,05,07,36,15.90
2013,08,05,07,37,16.00
2013,08,05,07,38,16.10
2013,08,05,07,39,16.20
2013,08,05,07,40,16.30
2013,08,05,07,41,16.30
2013,08,05,07,42,16.40
2013,08,05,07,43,16.50
2013,08,05,07,44,16.60
2013,08,05,07,45,16.70
2013,08,05,07,46,16.80
2013,08,05,07,47,16.80
2013,08,05,07,48,16.80
2013,08,05,07,49,16.70
2013,08,05,07,50,16.70
2013,08,05,07,51,16.70
2013,08,05,07,52,16.70
2013,08,05,07,53,16.70
2013,08,05,07,54,16.80
2013,08,05,07,55,16.80
2013,08,05,07,56,16.90
2013,08,05,07,57,16.80
2013,08,05,07,58,16.90
2013,08,05,07,59,16.80
2013,08,05,08,00,16.80
2013,08,05,08,01,16.90
2013,08,05,08,02,16.90
2013,08,05,08,03,16.90
2013,08,05,08,04,17.00
2013,08,05,08,05,17.10
2013,08,05,08,06,17.20
2013,08,05,08,07,17.40
2013,08,05,08,08,17.50
2013,08,05,08,09,17.50
2013,08,05,08,10,17.50
2013,08,05,08,11,17.50
2013,08,05,08,12,17.60
2013,08,05,08,13,17.60
2013,08,05,08,14,17.60
2013,08,05,08,15,17.60
2013,08,05,08,16,17.60
2013,08,05,08,17,17.60
2013,08,05,08,18,17.50
2013,08,05,08,19,17.50
2013,08,05,08,20,17.50
2013,08,05,08,21,17.50
2013,08,05,08,22,17.60
2013,08,05,08,23,17.70
2013,08,05,08,24,17.80
2013,08,05,08,25,17.90
2013,08,05,08,26,17.90
2013,08,05,08,27,17.90
2013,08,05,08,28,17.90
2013,08,05,08,29,17.90
2013,08,05,08,30,18.00
2013,08,05,08,31,18.10
2013,08,05,08,32,18.20
2013,08,05,08,33,18.30
2013,08,05,08,34,18.40
2013,08,05,08,35,18.40
2013,08,05,08,36,18.50
2013,08,05,08,37,18.50
2013,08,05,08,38,18.50
2013,08,05,08,39,18.50
2013,08,05,08,40,18.60
2013,08,05,08,41,18.70
2013,08,05,08,42,18.70
2013,08,05,08,43,18.80
2013,08,05,08,44,18.70
2013,08,05,08,45,18.70
2013,08,05,08,46,18.70
2013,08,05,08,47,18.70
2013,08,05,08,48,18.70
2013,08,05,08,49,18.70
2013,08,05,08,50,18.60
2013,08,05,08,51,18.70
2013,08,05,08,52,18.70
2013,08,05,08,53,18.70
2013,08,05,08,54,18.80
2013,08,05,08,55,18.80
2013,08,05,08,56,18.80
2013,08,05,08,57,18.90
2013,08,05,08,58,18.90
2013,08,05,08,59,18.90
2013,08,05,09,00,18.80
2013,08,05,09,01,18.70
2013,08,05,09,02,18.70
2013,08,05,09,03,18.80
2013,08,05,09,04,18.80
2013,08,05,09,05,18.80
2013,08,05,09,06,18.80
2013,08,05,09,07,18.90
2013,08,05,09,08,18.90
2013,08,05,09,09,18.90
2013,08,05,09,10,19.00
2013,08,05,09,11,19.10
2013,08,05,09,12,19.10
2013,08,05,09,13,19.20
2013,08,05,09,14,19.30
2013,08,05,09,15,19.40
2013,08,05,09,16,19.40
2013,08,05,09,17,19.50
2013,08,05,09,18,19.60
2013,08,05,09,19,19.60
2013,08,05,09,20,19.60
2013,08,05,09,21,19.70
2013,08,05,09,22,19.70
2013,08,05,09,23,19.80
2013,08,05,09,24,19.80
2013,08,05,09,25,19.80
2013,08,05,09,26,19.80
2013,08,05,09,27,19.90
2013,08,05,09,28,19.90
2013,08,05,09,29,20.00
2013,08,05,09,30,20.10
2013,08,05,09,31,20.00
2013,08,05,09,32,19.90
2013,08,05,09,33,19.70
2013,08,05,09,34,19.60
2013,08,05,09,35,19.50
2013,08,05,09,36,19.60
2013,08,05,09,37,19.60
2013,08,05,09,38,19.60
2013,08,05,09,39,19.70
2013,08,05,09,40,19.70
2013,08,05,09,41,19.60
2013,08,05,09,42,19.60
2013,08,05,09,43,19.50
2013,08,05,09,44,19.50
2013,08,05,09,45,19.60
2013,08,05,09,46,19.60
2013,08,05,09,47,19.60
2013,08,05,09,48,19.70
2013,08,05,09,49,19.70
2013,08,05,09,50,19.70
2013,08,05,09,51,19.70
2013,08,05,09,52,19.70
2013,08,05,09,53,19.70
2013,08,05,09,54,19.80
2013,08,05,09,55,19.80
2013,08,05,09,56,19.90
2013,08,05,09,57,19.90
2013,08,05,09,58,19.80
2013,08,05,09,59,19.80
2013,08,05,10,00,19.80
2013,08,05,10,01,19.90
2013,08,05,10,02,19.90
2013,08,05,10,03,19.90
2013,08,05,10,04,19.80
2013,08,05,10,05,19.80
2013,08,05,10,06,19.80
2013,08,05,10,07,19.70
2013,08,05,10,08,19.70
2013,08,05,10,09,19.70
2013,08,05,10,10,19.60
2013,08,05,10,11,19.60
2013,08,05,10,12,19.70
2013,08,05,10,13,19.70
2013,08,05,10,14,19.80
2013,08,05,10,15,19.80
2013,08,05,10,16,19.80
2013,08,05,10,17,19.80
2013,08,05,10,18,19.90
2013,08,05,10,19,19.90
2013,08,05,10,20,20.00
2013,08,05,10,21,20.10
2013,08,05,10,22,20.20
2013,08,05,10,23,20.20
2013,08,05,10,24,20.20
2013,08,05,10,25,20.20
2013,08,05,10,26,20.20
2013,08,05,10,27,20.10
2013,08,05,10,28,20.10
2013,08,05,10,29,20.10
2013,08,05,10,30,20.10
2013,08,05,10,31,20.10
2013,08,05,10,32,20.20
2013,08,05,10,33,20.20
2013,08,05,10,34,20.20
2013,08,05,10,35,20.20
2013,08,05,10,36,20.20
2013,08,05,10,37,20.20
2013,08,05,10,38,20.10
2013,08,05,10,39,20.10
2013,08,05,10,40,20.10
2013,08,05,10,41,20.10
2013,08,05,10,42,20.10
2013,08,05,10,43,20.10
2013,08,05,10,44,20.10
2013,08,05,10,45,20.20
2013,08,05,10,46,20.20
2013,08,05,10,47,20.20
2013,08,05,10,48,20.30
2013,08,05,10,49,20.40
2013,08,05,10,50,20.50
2013,08,05,10,51,20.50
2013,08,05,10,52,20.40
2013,08,05,10,53,20.30
2013,08,05,10,54,20.30
2013,08,05,10,55,20.50
2013,08,05,10,56,20.50
2013,08,05,10,57,20.50
2013,08,05,10,58,20.50
2013,08,05,10,59,20.40
2013,08,05,11,00,20.50
2013,08,05,11,01,20.60
2013,08,05,11,02,20.70
2013,08,05,11,03,20.80
2013,08,05,11,04,20.90
2013,08,05,11,05,21.10
2013,08,05,11,06,21.20
2013,08,05,11,07,21.30
2013,08,05,11,08,21.30
2013,08,05,11,09,21.40
2013,08,05,11,10,21.40
2013,08,05,11,11,21.30
2013,08,05,11,12,21.30
2013,08,05,11,13,21.30
2013,08,05,11,14,21.30
2013,08,05,11,15,21.20
2013,08,05,11,16,21.10
2013,08,05,11,17,21.00
2013,08,05,11,18,21.00
2013,08,05,11,19,21.00
2013,08,05,11,20,21.00
2013,08,05,11,21,21.10
2013,08,05,11,22,21.10
2013,08,05,11,23,21.20
2013,08,05,11,24,21.20
2013,08,05,11,25,21.30
2013,08,05,11,26,21.30
2013,08,05,11,27,21.30
2013,08,05,11,28,21.40
2013,08,05,11,29,21.50
2013,08,05,11,30,21.60
2013,08,05,11,31,21.60
2013,08,05,11,32,21.60
2013,08,05,11,33,21.60
2013,08,05,11,34,21.60
2013,08,05,11,35,21.60
2013,08,05,11,36,21.60
2013,08,05,11,37,21.60
2013,08,05,11,38,21.60
2013,08,05,11,39,21.60
2013,08,05,11,40,21.50
2013,08,05,11,41,21.40
2013,08,05,11,42,21.30
2013,08,05,11,43,21.30
2013,08,05,11,44,21.30
2013,08,05,11,45,21.40
2013,08,05,11,46,21.40
2013,08,05,11,47,21.30
2013,08,05,11,48,21.30
2013,08,05,11,49,21.20
2013,08,05,11,50,21.20
2013,08,05,11,51,21.20
2013,08,05,11,52,21.20
2013,08,05,11,53,21.20
2013,08,05,11,54,21.10
2013,08,05,11,55,21.10
2013,08,05,11,56,21.00
2013,08,05,11,57,20.90
2013,08,05,11,58,20.80
2013,08,05,11,59,20.90
2013,08,05,12,00,21.00
2013,08,05,12,01,21.00
2013,08,05,12,02,20.80
2013,08,05,12,03,20.80
2013,08,05,12,04,20.80
2013,08,05,12,05,20.70
2013,08,05,12,06,20.70
2013,08,05,12,07,20.70
2013,08,05,12,08,20.50
2013,08,05,12,09,20.50
2013,08,05,12,10,20.40
2013,08,05,12,11,20.40
2013,08,05,12,12,20.40
2013,08,05,12,13,20.50
2013,08,05,12,14,20.60
2013,08,05,12,15,20.60
2013,08,05,12,16,20.60
2013,08,05,12,17,20.70
2013,08,05,12,18,20.80
2013,08,05,12,19,20.80
2013,08,05,12,20,21.00
2013,08,05,12,21,21.20
2013,08,05,12,22,21.10
2013,08,05,12,23,21.00
2013,08,05,12,24,20.90
2013,08,05,12,25,20.70
2013,08,05,12,26,20.70
2013,08,05,12,27,20.70
2013,08,05,12,28,20.80
2013,08,05,12,29,20.80
2013,08,05,12,30,20.90
2013,08,05,12,31,21.00
2013,08,05,12,32,21.20
2013,08,05,12,33,21.30
2013,08,05,12,34,21.40
2013,08,05,12,35,21.40
2013,08,05,12,36,21.40
2013,08,05,12,37,21.40
2013,08,05,12,38,21.50
2013,08,05,12,39,21.60
2013,08,05,12,40,21.60
2013,08,05,12,41,21.60
2013,08,05,12,42,21.70
2013,08,05,12,43,21.80
2013,08,05,12,44,21.90
2013,08,05,12,45,22.00
2013,08,05,12,46,22.10
2013,08,05,12,47,22.10
2013,08,05,12,48,22.10
2013,08,05,12,49,22.20
2013,08,05,12,50,22.20
2013,08,05,12,51,22.20
2013,08,05,12,52,22.10
2013,08,05,12,53,21.90
2013,08,05,12,54,21.80
2013,08,05,12,55,21.70
2013,08,05,12,56,21.70
2013,08,05,12,57,21.80
2013,08,05,12,58,21.80
2013,08,05,12,59,21.70
2013,08,05,13,00,21.60
2013,08,05,13,01,21.60
2013,08,05,13,02,21.50
2013,08,05,13,03,21.40
2013,08,05,13,04,21.50
2013,08,05,13,05,21.60
2013,08,05,13,06,21.70
2013,08,05,13,07,21.80
2013,08,05,13,08,21.90
2013,08,05,13,09,22.00
2013,08,05,13,10,22.00
2013,08,05,13,11,22.00
2013,08,05,13,12,22.00
2013,08,05,13,13,22.10
2013,08,05,13,14,22.20
2013,08,05,13,15,22.30
2013,08,05,13,16,22.40
2013,08,05,13,17,22.50
2013,08,05,13,18,22.60
2013,08,05,13,19,22.60
2013,08,05,13,20,22.60
2013,08,05,13,21,22.70
2013,08,05,13,22,22.70
2013,08,05,13,23,22.80
2013,08,05,13,24,22.90
2013,08,05,13,25,23.00
2013,08,05,13,26,23.10
2013,08,05,13,27,23.10
2013,08,05,13,28,23.20
2013,08,05,13,29,23.30
2013,08,05,13,30,23.30
2013,08,05,13,31,23.40
2013,08,05,13,32,23.40
2013,08,05,13,33,23.40
2013,08,05,13,34,23.40
2013,08,05,13,35,23.50
2013,08,05,13,36,23.50
2013,08,05,13,37,23.40
2013,08,05,13,38,23.30
2013,08,05,13,39,23.30
2013,08,05,13,40,23.30
2013,08,05,13,41,23.30
2013,08,05,13,42,23.10
2013,08,05,13,43,23.00
2013,08,05,13,44,22.90
2013,08,05,13,45,22.80
2013,08,05,13,46,22.70
2013,08,05,13,47,22.60
2013,08,05,13,48,22.60
2013,08,05,13,49,22.70
2013,08,05,13,50,22.70
2013,08,05,13,51,22.60
2013,08,05,13,52,22.70
2013,08,05,13,53,22.90
2013,08,05,13,54,22.90
2013,08,05,13,55,22.90
2013,08,05,13,56,22.90
2013,08,05,13,57,23.00
2013,08,05,13,58,23.20
2013,08,05,13,59,23.40
2013,08,05,14,00,23.60
2013,08,05,14,01,23.50
2013,08,05,14,02,23.40
2013,08,05,14,03,23.50
2013,08,05,14,04,23.60
2013,08,05,14,05,23.70
2013,08,05,14,06,23.80
2013,08,05,14,07,23.90
2013,08,05,14,08,23.90
2013,08,05,14,09,23.70
2013,08,05,14,10,23.70
2013,08,05,14,11,23.70
2013,08,05,14,12,23.60
2013,08,05,14,13,23.60
2013,08,05,14,14,23.60
2013,08,05,14,15,23.70
2013,08,05,14,16,23.70
2013,08,05,14,17,23.80
2013,08,05,14,18,23.80
2013,08,05,14,19,23.70
2013,08,05,14,20,23.60
2013,08,05,14,21,23.50
2013,08,05,14,22,23.50
2013,08,05,14,23,23.70
2013,08,05,14,24,23.80
2013,08,05,14,25,23.80
2013,08,05,14,26,23.80
2013,08,05,14,27,23.80
2013,08,05,14,28,23.80
2013,08,05,14,29,23.80
2013,08,05,14,30,23.90
2013,08,05,14,31,24.10
2013,08,05,14,32,24.10
2013,08,05,14,33,24.10
2013,08,05,14,34,24.10
2013,08,05,14,35,24.00
2013,08,05,14,36,23.90
2013,08,05,14,37,23.80
2013,08,05,14,38,23.60
2013,08,05,14,39,23.60
2013,08,05,14,40,23.60
2013,08,05,14,41,23.60
2013,08,05,14,42,23.60
2013,08,05,14,43,23.70
2013,08,05,14,44,23.80
2013,08,05,14,45,24.00
2013,08,05,14,46,24.10
2013,08,05,14,47,24.00
2013,08,05,14,48,24.10
2013,08,05,14,49,24.30
2013,08,05,14,50,24.50
2013,08,05,14,51,24.70
2013,08,05,14,52,24.90
2013,08,05,14,53,25.10
2013,08,05,14,54,25.20
2013,08,05,14,55,25.30
2013,08,05,14,56,25.40
2013,08,05,14,57,25.60
2013,08,05,14,58,25.70
2013,08,05,14,59,25.60
2013,08,05,15,00,25.40
2013,08,05,15,01,25.30
2013,08,05,15,02,25.10
2013,08,05,15,03,24.90
2013,08,05,15,04,24.90
2013,08,05,15,05,24.80
2013,08,05,15,06,24.70
2013,08,05,15,07,24.80
2013,08,05,15,08,24.80
2013,08,05,15,09,24.90
2013,08,05,15,10,24.90
2013,08,05,15,11,24.90
2013,08,05,15,12,25.00
2013,08,05,15,13,24.90
2013,08,05,15,14,24.90
2013,08,05,15,15,24.90
2013,08,05,15,16,24.70
2013,08,05,15,17,24.70
2013,08,05,15,18,24.70
2013,08,05,15,19,24.80
2013,08,05,15,20,24.90
2013,08,05,15,21,24.90
2013,08,05,15,22,24.80
2013,08,05,15,23,24.80
2013,08,05,15,24,24.70
2013,08,05,15,25,24.70
2013,08,05,15,26,24.80
2013,08,05,15,27,24.80
2013,08,05,15,28,24.80
2013,08,05,15,29,24.90
2013,08,05,15,30,24.90
2013,08,05,15,31,24.90
2013,08,05,15,32,24.90
2013,08,05,15,33,24.90
2013,08,05,15,34,25.00
2013,08,05,15,35,25.10
2013,08,05,15,36,25.10
2013,08,05,15,37,25.20
2013,08,05,15,38,25.30
2013,08,05,15,39,25.30
2013,08,05,15,40,25.30
2013,08,05,15,41,25.20
2013,08,05,15,42,25.30
2013,08,05,15,43,25.40
2013,08,05,15,44,25.30
2013,08,05,15,45,25.20
2013,08,05,15,46,25.20
2013,08,05,15,47,25.20
2013,08,05,15,48,25.30
2013,08,05,15,49,25.40
2013,08,05,15,50,25.40
2013,08,05,15,51,25.40
2013,08,05,15,52,25.50
2013,08,05,15,53,25.40
2013,08,05,15,54,25.30
2013,08,05,15,55,25.40
2013,08,05,15,56,25.40
2013,08,05,15,57,25.50
2013,08,05,15,58,25.60
2013,08,05,15,59,25.60
2013,08,05,16,00,25.70
2013,08,05,16,01,25.60
2013,08,05,16,02,25.60
2013,08,05,16,03,25.70
2013,08,05,16,04,25.80
2013,08,05,16,05,25.90
2013,08,05,16,06,26.10
2013,08,05,16,07,26.10
2013,08,05,16,08,26.20
2013,08,05,16,09,26.20
2013,08,05,16,10,26.20
2013,08,05,16,11,26.30
2013,08,05,16,12,26.30
2013,08,05,16,13,26.40
2013,08,05,16,14,26.50
2013,08,05,16,15,26.60
2013,08,05,16,16,26.60
2013,08,05,16,17,26.70
2013,08,05,16,18,26.70
2013,08,05,16,19,26.70
2013,08,05,16,20,26.70
2013,08,05,16,21,26.70
2013,08,05,16,22,26.70
2013,08,05,16,23,26.80
2013,08,05,16,24,26.90
2013,08,05,16,25,27.00
2013,08,05,16,26,27.10
2013,08,05,16,27,27.20
2013,08,05,16,28,27.20
2013,08,05,16,29,27.30
2013,08,05,16,30,27.30
2013,08,05,16,31,27.30
2013,08,05,16,32,27.30
2013,08,05,16,33,27.20
2013,08,05,16,34,27.20
2013,08,05,16,35,27.10
2013,08,05,16,36,27.00
2013,08,05,16,37,26.90
2013,08,05,16,38,26.90
2013,08,05,16,39,26.80
2013,08,05,16,40,26.80
2013,08,05,16,41,26.80
2013,08,05,16,42,26.80
2013,08,05,16,43,26.80
2013,08,05,16,44,26.80
2013,08,05,16,45,26.80
2013,08,05,16,46,26.70
2013,08,05,16,47,26.50
2013,08,05,16,48,26.30
2013,08,05,16,49,26.10
2013,08,05,16,50,25.90
2013,08,05,16,51,25.80
2013,08,05,16,52,25.60
2013,08,05,16,53,25.60
2013,08,05,16,54,25.50
2013,08,05,16,55,25.50
2013,08,05,16,56,25.50
2013,08,05,16,57,25.50
2013,08,05,16,58,25.60
2013,08,05,16,59,25.60
2013,08,05,17,00,25.70
2013,08,05,17,01,25.70
2013,08,05,17,02,25.80
2013,08,05,17,03,25.80
2013,08,05,17,04,25.80
2013,08,05,17,05,25.80
2013,08,05,17,06,25.80
2013,08,05,17,07,25.90
2013,08,05,17,08,25.90
2013,08,05,17,09,26.00
2013,08,05,17,10,26.00
2013,08,05,17,11,26.10
2013,08,05,17,12,26.10
2013,08,05,17,13,26.00
2013,08,05,17,14,25.70
2013,08,05,17,15,25.60
2013,08,05,17,16,25.40
2013,08,05,17,17,25.20
2013,08,05,17,18,25.10
2013,08,05,17,19,25.10